Total_Precipitation_Accumulation
3.56 3.51 3.54 3.65 3.40 3.44 3.74 4.11 3.90 3.94 4.11 3.99 3.68 3.44 3.48 3.48 3.51 3.54 3.65 3.78 3.69 3.87 4.56 4.80 4.43 4.05 3.93 3.53 3.29 3.00 2.79 2.64 2.40 2.11 1.96 2.00 2.06 2.12 2.04 1.95 2.01 2.02 1.94
3.74 3.70 3.49 3.62 3.45 3.38 3.56 3.89 3.87 4.33 4.34 4.36 3.95 3.66 3.60 3.60 3.55 3.59 3.61 3.97 3.87 3.68 4.11 4.58 4.73 4.62 4.43 4.12 3.88 3.54 3.26 3.06 2.80 2.30 2.03 1.99 2.06 2.15 2.15 2.19 2.15 2.11 2.08
3.75 3.73 3.65 3.52 3.52 3.54 3.77 3.90 3.94 4.32 4.29 4.27 4.21 3.89 3.71 3.41 3.25 3.37 3.35 3.56 3.50 3.43 3.70 4.15 4.53 4.69 4.76 4.65 4.56 4.32 3.82 3.43 3.05 2.56 2.21 2.02 1.97 2.06 2.09 2.15 2.14 2.08 2.07
3.65 3.93 3.74 3.44 3.53 3.51 3.71 4.14 4.27 4.51 4.68 4.65 4.38 4.00 3.77 3.67 3.37 3.31 3.12 3.08 3.37 2.99 3.30 3.78 4.15 4.38 4.92 5.23 5.34 5.33 4.75 3.97 3.32 2.96 2.64 2.35 2.11 2.07 2.04 2.12 2.22 2.12 2.01
3.38 3.75 3.71 3.64 3.63 3.86 3.92 3.70 4.40 4.74 4.87 4.76 3.97 3.81 3.43 3.40 3.27 2.99 3.03 2.96 3.22 3.25 3.31 3.23 3.36 3.70 4.66 5.65 6.03 6.17 5.97 4.99 4.06 3.58 3.27 2.98 2.66 2.34 2.10 2.09 2.16 2.09 1.94
3.25 3.67 3.50 3.52 3.61 4.01 4.20 4.29 4.78 4.81 4.61 4.71 3.90 3.58 3.12 2.79 2.79 2.86 2.65 2.71 2.85 2.73 3.01 3.44 3.77 3.45 3.96 4.71 5.24 5.72 6.11 5.88 5.11 4.28 3.87 3.61 3.38 3.01 2.57 2.32 2.23 2.20 2.07
3.41 3.98 3.60 3.97 3.84 3.92 4.02 4.18 4.50 4.55 4.29 4.51 4.60 3.94 3.00 2.41 2.40 2.31 2.33 2.48 2.39 2.39 2.77 3.44 3.72 3.76 3.55 3.38 3.62 4.28 5.21 5.75 5.56 4.85 4.42 4.18 4.09 3.73 3.29 2.92 2.63 2.45 2.28
3.49 3.59 3.89 3.81 3.86 4.03 3.82 3.88 4.30 4.21 3.76 4.12 4.61 4.73 3.80 3.10 2.47 1.89 2.09 2.20 2.33 2.52 2.46 2.55 3.00 3.61 3.59 3.65 3.25 3.08 3.86 4.91 5.44 5.41 5.05 4.67 4.41 4.09 3.80 3.51 3.15 2.77 2.45
3.50 3.64 3.63 3.61 3.77 3.69 3.72 3.75 3.93 4.09 3.97 3.90 4.28 4.74 4.16 3.47 2.76 2.13 2.01 2.00 2.30 2.61 2.52 2.54 2.77 3.22 3.46 3.85 3.90 3.57 3.22 3.61 4.64 5.74 5.89 5.22 4.36 3.77 3.57 3.62 3.59 3.32 2.98
3.73 3.56 3.42 3.40 3.43 3.28 3.46 3.21 3.53 3.81 4.04 3.72 3.82 3.79 3.66 3.64 3.51 2.78 2.22 2.08 2.29 2.48 2.57 2.51 2.65 3.01 3.30 3.73 4.06 3.67 2.98 2.75 3.34 4.63 5.43 5.41 4.79 3.92 3.54 3.77 4.19 4.14 3.73
3.69 3.31 3.35 3.37 3.36 3.17 3.07 3.03 3.36 3.33 3.46 3.51 3.57 3.55 3.62 3.58 3.40 3.16 2.73 2.46 2.31 2.03 2.05 2.20 2.42 2.75 3.03 3.33 3.77 3.54 3.19 3.05 3.00 3.21 3.75 4.20 4.47 4.23 3.88 3.96 4.54 4.93 4.79
3.29 3.01 3.04 3.12 3.02 3.00 3.03 2.99 3.07 3.09 3.20 3.31 3.35 3.33 3.49 3.45 3.41 3.48 3.09 2.79 2.54 2.15 1.97 2.04 2.22 2.48 2.71 2.79 2.85 3.07 3.05 3.03 2.81 2.62 2.69 2.82 3.16 3.62 3.92 4.24 4.79 5.32 5.63
2.56 2.52 2.64 2.77 2.65 2.71 2.75 2.94 2.87 2.79 2.97 3.19 3.22 3.19 3.23 3.20 3.23 3.41 3.34 2.80 2.59 2.35 2.32 2.11 2.01 2.32 2.45 2.68 2.93 2.88 2.61 2.67 2.42 2.27 2.26 2.37 2.56 2.83 3.11 3.46 4.06 4.73 5.25
2.18 2.27 2.39 2.46 2.42 2.44 2.38 2.79 2.61 2.57 2.73 2.82 2.72 3.13 3.06 2.76 3.00 3.19 3.32 3.36 3.08 2.82 2.80 2.44 2.16 2.24 2.34 2.56 2.78 2.67 2.32 2.28 2.05 1.90 1.90 2.00 2.09 2.26 2.50 2.75 3.03 3.41 3.83
2.17 2.26 2.21 2.32 2.37 2.42 2.48 2.65 2.52 2.50 2.76 2.70 2.61 2.90 2.84 2.65 2.78 2.91 3.20 3.47 3.70 3.43 3.12 2.89 2.57 2.36 2.35 2.51 2.77 2.44 2.39 2.34 2.05 1.97 1.89 1.79 1.76 1.84 1.95 2.17 2.35 2.54 2.86
2.30 2.33 2.30 2.44 2.40 2.36 2.39 2.48 2.26 2.30 2.58 2.65 2.71 2.92 2.86 2.70 2.84 2.89 3.13 3.48 3.87 3.93 3.36 2.74 2.55 2.39 2.55 2.51 2.72 2.37 2.26 2.32 2.08 1.89 1.79 1.75 1.71 1.76 1.80 1.91 2.10 2.27 2.41
2.36 2.30 2.26 2.36 2.38 2.33 2.40 2.48 2.23 2.40 2.54 2.58 2.57 2.74 2.82 2.96 3.04 3.03 3.19 3.37 3.69 3.97 3.56 2.86 2.69 2.68 2.86 2.82 2.65 2.35 2.09 1.99 1.81 1.80 1.64 1.58 1.57 1.67 1.79 1.82 1.95 2.10 2.15
2.31 2.38 2.40 2.39 2.30 2.33 2.55 2.62 2.40 2.50 2.62 2.58 2.60 2.79 2.70 2.96 3.18 3.10 3.22 3.19 3.34 3.73 3.58 3.21 3.09 2.99 2.98 2.84 2.82 2.63 2.24 2.00 1.91 1.96 1.72 1.59 1.57 1.58 1.71 1.74 1.81 1.97 2.08
2.33 2.45 2.54 2.57 2.61 2.67 2.69 2.75 2.80 2.71 2.60 2.53 2.62 2.67 2.66 2.93 2.95 3.09 3.19 3.13 3.12 3.23 3.48 3.33 3.23 3.28 3.16 3.02 3.04 2.81 2.56 2.55 2.11 2.06 1.97 1.83 1.79 1.79 1.82 1.86 1.85 1.89 2.00
2.45 2.57 2.60 2.74 2.97 3.06 3.05 3.03 2.86 2.76 2.70 2.67 2.64 2.59 2.54 2.60 2.69 2.87 2.95 3.07 3.13 3.24 3.38 3.35 3.35 3.46 3.38 3.37 3.48 3.25 3.03 2.93 2.54 2.11 2.15 2.03 1.95 1.83 1.76 1.77 1.77 1.80 1.91
2.33 2.64 2.81 2.90 3.19 3.33 3.10 3.18 3.13 3.00 3.05 2.83 2.68 2.56 2.41 2.44 2.54 2.61 2.48 2.71 2.93 3.04 3.04 3.13 3.20 3.45 3.46 3.54 3.50 3.37 3.24 3.22 2.98 2.46 2.31 2.16 2.09 1.95 1.93 1.99 1.95 1.87 1.83
2.34 2.53 2.66 2.79 2.84 2.60 2.76 2.79 2.78 2.89 2.97 2.82 2.71 2.68 2.49 2.34 2.29 2.22 2.10 2.15 2.35 2.52 2.72 3.00 3.09 3.25 3.42 3.56 3.81 3.82 3.67 3.48 3.23 2.91 2.87 2.66 2.37 2.27 2.09 1.97 2.09 1.95 1.72
2.37 2.44 2.49 2.54 2.52 2.56 2.56 2.26 2.18 2.19 2.39 2.51 2.59 2.59 2.26 2.04 2.17 2.03 2.04 2.03 2.04 2.20 2.38 2.70 2.86 2.90 3.15 3.40 3.74 3.82 3.86 3.77 3.54 3.34 3.27 3.05 2.71 2.47 2.19 2.08 2.17 1.96 1.78
2.49 2.52 2.61 2.63 2.63 2.54 2.46 2.16 2.11 2.02 2.14 2.26 2.34 2.35 2.30 2.23 2.23 2.31 2.20 2.04 1.93 2.03 2.18 2.14 2.16 2.34 2.62 3.10 3.36 3.40 3.62 3.64 3.47 3.26 3.25 3.12 2.79 2.56 2.31 2.24 2.26 1.99 1.86
2.63 2.61 2.76 2.82 2.76 2.64 2.56 2.32 2.26 2.09 2.16 2.18 2.19 2.19 2.16 2.09 2.25 2.18 2.07 2.01 2.02 2.07 2.02 1.99 1.93 1.98 2.15 2.41 2.83 3.04 3.16 3.15 2.94 2.66 2.62 2.66 2.52 2.53 2.47 2.34 2.15 2.04 1.86
3.09 3.12 3.01 2.85 2.72 2.61 2.64 2.31 2.19 2.00 2.04 2.12 2.24 2.16 2.07 1.95 1.99 1.94 1.90 2.03 2.00 2.02 2.11 2.02 1.86 1.76 1.71 1.92 2.34 2.53 2.68 2.79 2.61 2.45 2.18 2.22 2.17 2.35 2.38 2.11 1.96 1.95 1.91